GFSWCAN_prec_radar_147.txt.gz
Reflectivity
15 14 12 15 6 17 18 26 16 16 10 13 10 17 3 -12 -5 22 -13 19 -1 13 2 17 37 30 23 -10 -17 -18 22 13 28 22 29 22 22 -8 -20 -20 -20 -7 14 10 13 14 -0 -20 -11 -1 -20 -20 -20 -20
21 16 14 15 6 12 22 21 15 13 10 11 15 17 17 -19 0 23 10 -18 -6 27 14 25 36 2 0 -15 1 -7 -9 8 -20 -8 4 -16 27 30 9 -15 -20 13 -20 -20 -17 4 -2 -18 -20 -20 -20 -20 -20 -20
13 11 14 17 23 19 21 6 13 6 11 13 12 -14 15 19 2 12 10 -16 20 20 19 19 33 21 -9 29 19 15 9 -20 25 11 -18 26 16 14 0 -20 -20 -19 -5 -20 -20 -20 -20 -20 -20 -20 -20 -20 -20 -20
24 19 13 16 28 14 5 10 5 -16 -20 6 -13 -1 -19 15 10 20 -16 -10 26 31 21 21 17 12 -16 18 33 -3 -14 -20 -20 -20 -20 3 8 -12 -17 -20 -20 -5 -14 -4 -20 -20 -20 -20 -20 -20 -12 24 0 -20
21 32 16 20 20 -2 5 -14 -20 -20 -12 -20 -20 -20 -6 -20 3 3 -0 19 23 21 25 14 24 -3 -20 -20 -11 -20 -20 -20 -20 -20 -20 -20 -15 11 14 -13 -20 -20 -20 -13 -20 -20 -20 -20 -19 -20 -20 -20 -20 -20
19 -19 17 38 17 -15 -20 -20 -20 -10 -19 -19 -20 -20 2 23 12 21 35 27 20 31 35 17 10 -1 -20 -20 -20 -20 -20 -20 -20 -20 -20 -20 -20 -20 -20 -20 -20 -20 -20 -20 -20 -20 -20 -20 -20 -20 -20 -20 -20 -20
6 13 35 15 -20 -20 -20 -20 -20 -20 8 -13 9 35 41 42 24 27 25 4 14 33 30 1 -20 21 -20 -20 -20 -20 -20 -20 -20 -20 -20 -20 -20 -20 -20 -20 -20 -20 -20 -20 -20 -20 -20 -20 -20 -20 -20 -20 -20 -20
25 19 -4 -20 -20 -20 -20 -20 -20 -20 -2 17 36 37 40 41 32 4 7 27 27 23 17 13 14 -13 -20 -20 -20 -20 -20 -20 -20 -20 -20 -20 -20 -20 -20 -20 -20 -20 -20 -20 -20 -20 -20 -20 -20 -20 -20 -20 -20 -20
-18 -18 -20 -20 -20 -17 -20 -20 -20 -14 23 37 32 27 7 11 -7 4 10 28 2 -9 -20 -20 -20 -19 -20 -20 -20 -20 -20 -20 -20 -19 -20 -20 -20 -20 -20 -20 -20 -20 -20 -20 -20 -20 -20 -20 -20 -20 -20 -20 -20 -20
-13 -20 -20 -20 -20 -20 -20 -20 -20 5 28 0 10 15 13 11 13 13 6 2 -20 -20 -20 -20 -20 -20 -20 -20 -20 -20 -3 -20 -18 -20 -20 -20 -20 -20 -20 -20 -20 -1 -16 -20 -20 -20 -20 -20 -20 -20 -20 -20 -20 -20
-20 -20 -20 -20 -20 -20 -20 -20 -20 -15 -12 -3 -7 8 -20 -20 -20 -20 -20 -20 -20 -20 -20 -20 -20 -20 -20 -20 -5 -20 -20 -20 -7 -20 -20 -20 -20 -19 -20 -20 -20 -20 -20 -20 -20 -5 -7 4 -20 -20 -20 -20 -20 -20
-6 -4 -20 -0 -20 -20 -3 -2 -13 -20 -20 -20 -20 -20 -17 -20 -20 -20 -20 -20 -20 -20 -20 -20 -20 -20 -20 -20 -20 -20 -20 -15 -19 -20 19 18 -6 -20 -20 -7 -20 -20 -20 -9 17 -17 -20 -20 -20 -20 -20 -20 -20 -20
5 10 -17 15 17 -20 -20 -20 -20 -20 -20 -20 -20 -20 -20 -20 -20 -20 -20 -20 -20 -20 -20 -20 15 13 -20 -20 -9 -20 -20 -20 -20 -19 -19 -20 -12 -1 10 20 19 -7 -9 -20 -16 -20 -20 -20 -20 -20 -20 -20 -20 -20
17 19 2 -7 -17 -18 -20 -20 -19 -4 -20 -20 -20 -20 -20 -20 -20 -20 -20 -17 -20 -20 -20 -20 -15 -14 -18 -20 -20 -20 -20 -20 4 25 -20 9 21 -9 -20 -20 -20 -20 -20 -20 -20 -20 -20 -20 -20 -20 -20 -20 -20 -20
-20 11 31 22 12 12 -20 -5 -20 -20 17 -1 19 -20 -20 -20 -20 3 -20 -6 -20 -20 -20 -20 -20 -20 -4 -0 -20 -20 -20 -20 -11 -20 10 -20 -20 -20 -20 -20 -20 -20 -20 -20 -20 -20 -20 -20 -20 -20 -20 -20 -20 -20
-20 -20 -20 -9 -9 -6 -20 -3 -6 -19 -20 -20 -20 -20 -20 -20 -20 -20 -20 -20 -20 -18 3 22 -20 -20 -20 -20 -20 -20 -8 -20 6 1 -20 -20 -20 -20 -20 -20 -20 -20 -20 -20 -20 -20 -20 -20 -20 -20 -20 -20 -20 -20
-20 -20 -20 -20 -20 -20 -20 -0 24 11 0 2 12 11 -17 -20 -20 -20 -20 -20 -20 18 12 -9 -20 -20 -20 -12 10 -20 -20 -20 -20 -20 -16 -20 -20 -17 -19 -20 -20 -20 -20 -20 -20 -20 -20 -20 -20 -20 -20 -20 -20 -20
21 -20 -20 -20 -20 -19 -20 -20 -19 14 14 20 12 -4 -14 9 -3 11 -16 -20 -2 -11 -14 -20 32 1 5 15 7 -20 -4 -20 -20 -20 -20 -20 -20 -20 -20 -20 -20 -20 -20 -20 -20 -20 -20 -20 -20 -20 -20 -20 -20 -20
-11 -13 -18 17 0 5 -4 -20 -20 -20 -20 -20 -20 -20 -20 -20 -20 -20 -18 -16 -16 20 4 8 21 16 -6 -20 -20 -20 -20 -20 -20 -20 -20 -20 -18 -12 -20 -20 -20 -20 -20 -20 -20 -20 -20 -20 -20 -20 -20 -20 -20 -20
-20 -20 -20 -20 -20 -20 -13 -20 -20 -20 -20 -12 -13 -20 -20 -20 -20 -20 -19 -20 -20 9 17 33 13 6 -20 -20 -20 -20 -20 -20 -20 -20 -18 -18 -0 -11 -20 -20 -20 -20 -20 -20 -20 -6 -20 -20 -20 -20 -20 -20 -20 -20
-20 -20 -20 -20 1 -20 -20 -20 -20 -20 -20 -14 -9 -20 -5 -17 -20 -11 -15 2 4 12 16 -10 -20 -20 -20 -20 -20 -20 -20 -20 -20 -20 -20 -2 8 -11 -19 -10 -20 -20 -20 -20 -20 -14 -14 -20 -20 -20 -20 -20 -20 -20
-20 -20 -20 -20 -16 -12 -20 -20 -20 -20 -20 -20 -20 -20 -20 -4 -20 -20 -20 -15 -19 -17 -20 -20 -20 -20 -20 -20 -20 -20 -20 -20 -20 -13 1 -13 -17 -17 -18 -20 -20 -17 -20 -20 -20 -20 -20 -20 -20 -20 -20 -20 -16 -20
-20 -20 -20 -20 -20 -20 -20 -20 -20 -20 -20 -18 -7 -5 -13 -20 -20 -19 -19 -20 -20 -20 -20 -20 -20 -20 -20 -20 -20 -20 -20 -20 -20 -20 -14 -19 -20 -20 -20 -20 -20 -20 -20 -20 -20 -20 -20 4 -13 -20 -20 -11 -20 -20
-20 -20 -20 -20 -16 -20 -20 -20 -20 -20 -20 -20 -8 -19 -1 -7 -20 -20 -10 -20 -20 -20 -20 -20 -20 -20 -20 -20 -20 -20 -20 -20 -20 -20 -20 -20 -20 -20 -20 -20 -20 -20 -20 -20 -20 -20 -20 -20 -4 -20 -20 -20 -20 -20
-20 -20 -20 -20 -20 -3 -20 -20 -20 0 -20 -12 6 -20 -9 -20 -19 -20 -20 -20 -20 -20 -20 -20 -20 -20 -20 -20 -20 -20 -20 -20 -20 -20 -20 -20 -20 -20 -20 -20 -20 -20 -20 -20 -20 -20 -20 -20 -20 -18 -20 -20 -20 -20
-20 -20 -20 -20 -13 -17 -13 1 4 3 1 -8 -6 -17 -20 -18 5 -20 -3 -12 -11 -20 -20 -20 -20 -20 -7 -20 -20 -20 -20 -20 -20 -20 -20 -20 -20 -20 -20 -20 -20 -20 -20 -20 -20 -18 -20 -20 -20 -20 -20 -20 -20 -20
-20 -20 -20 -20 -20 -20 -20 -18 -20 -9 -1 -20 -20 -20 -6 -17 -20 -19 -20 -20 -20 -14 -20 -20 -20 0 -14 -20 -20 -20 -20 -20 -20 -20 -20 -20 -20 -20 -20 -20 -20 -20 -20 -20 -20 -20 -20 -20 -20 -20 -20 -20 -20 -20
-20 -20 -20 -6 -11 -5 -6 -15 -11 -17 -20 5 -20 -16 -6 -14 -20 -20 -20 -20 -20 5 4 11 4 -6 -19 -20 -20 -20 -20 -20 -20 -20 -20 -20 -20 -20 -20 -20 -20 -20 -20 -20 -20 -20 -20 -20 -20 -20 -11 -20 -20 -20
-13 -12 -18 -18 -19 -5 2 0 -17 -10 -20 -19 -20 -12 -20 -20 -20 -20 -20 -20 -20 -20 8 -1 1 -14 -17 -18 -20 -20 -20 -20 -20 -20 -20 -20 -20 -20 -20 -3 -20 -20 -20 -20 2 -1 -19 -19 -20 -20 -20 -20 -20 -20
-5 -20 -11 0 -20 -20 -20 -20 -10 -20 -20 -20 -20 -20 -20 -20 -20 -20 -20 -20 -20 -20 -17 -20 -19 -16 -17 -20 -19 -20 -20 -20 -20 -18 -20 -20 -20 -20 -20 -20 -20 -20 -20 -20 -20 -20 -8 -18 -20 -20 -20 -20 -20 -20
-18 -6 -20 -20 -20 -20 -20 -20 -20 -20 -20 -20 -20 -20 -20 -20 -20 -20 -20 -20 -20 -20 -18 -17 -20 -20 -20 -20 -20 -20 -20 -20 -20 -20 -20 -20 -20 -20 -20 -20 -20 -20 -20 -12 -20 -20 -20 -20 -20 -20 -20 -20 -20 -20
-20 -20 -6 5 -11 -10 -20 -20 -2 -7 -4 1 -2 3 -17 -19 -20 -20 -20 -20 -20 -19 -20 -0 -20 -20 -20 -11 -17 -20 -20 -20 -20 -20 -20 -20 -20 -20 -20 -20 -20 -20 -20 -20 -20 -18 -17 -20 -20 -20 -20 -20 -20 -20
-20 -20 -20 -3 -20 -20 -20 -20 -20 -20 -20 -20 -20 -14 -20 10 -18 -20 -20 -20 -20 -20 -20 -20 -20 -11 -20 -20 -19 -20 -20 -20 -1 5 6 8 -1 0 -12 -20 -4 -20 -20 -20 -20 -18 -20 -20 -20 -20 -20 -20 -20 -20

GFSWCAN_prec_radar_150.txt.gz
Reflectivity
26 10 9 1 10 11 13 17 18 18 20 17 25 24 13 13 17 5 -20 -11 -10 10 -9 17 13 -6 18 19 -14 -20 7 6 9 10 27 29 21 28 12 -5 -20 -2 -3 5 10 17 -5 -20 -20 -20 -20 -20 -20 -20
19 15 9 7 5 13 -17 22 18 18 20 19 26 14 9 15 20 23 9 -16 10 17 17 14 -19 -2 29 26 44 -16 -20 -20 -20 24 17 23 28 20 26 14 -10 -18 -20 2 -20 -20 -20 -19 -20 -20 -20 -20 -20 -20
18 12 6 15 13 17 19 27 18 27 20 15 16 15 12 16 -16 19 -19 -7 20 22 7 -1 15 27 40 34 24 15 -20 -20 -20 -20 5 20 -8 -4 13 18 13 11 10 3 12 -20 -15 -20 -20 -20 -20 -20 -20 -20
19 14 23 22 13 1 25 18 25 18 15 13 6 13 14 16 13 23 -0 -20 10 20 1 -15 21 26 31 27 22 14 31 -5 -5 17 -5 -15 -19 -14 3 -9 -20 -20 -20 -20 -20 -20 -10 -14 -20 -20 -20 -20 -20 -20
9 17 17 14 2 27 26 15 9 -7 6 11 10 -18 11 3 6 25 1 -11 6 11 8 -12 18 22 24 30 9 33 33 20 -7 -20 -20 -20 -20 -20 -20 -13 -20 -15 -20 -20 -20 7 6 2 -20 -20 -20 -20 -20 -20
21 22 12 21 28 10 -3 -2 -20 4 16 -19 15 6 19 -19 24 30 17 -17 -20 21 32 17 -5 4 16 30 15 22 22 -15 -20 -20 -20 -20 -20 -20 -20 -20 -20 -20 -20 -20 -20 -20 -20 -20 -20 -20 -20 -20 -20 -20
9 14 23 11 3 5 16 4 -20 -20 -20 -20 -4 -3 10 12 7 -3 -7 -20 -20 11 34 31 17 17 -3 1 -7 -7 -5 -14 -20 -20 -20 -20 -20 -20 -20 -20 -20 -20 -20 -20 -20 -20 -20 -20 -20 -20 -20 -20 -20 -20
29 32 23 3 -7 -14 -20 -20 -20 -20 -20 -10 0 5 17 -3 6 -2 -20 -11 -14 13 -0 15 10 30 19 -20 -20 -20 -20 -20 -20 -20 -20 -20 -20 -20 -20 -20 -20 -20 -20 -20 -20 -20 -20 -20 -20 -20 -20 -20 -20 -20
-20 -20 -20 -20 -20 -20 -20 -20 -2 0 17 32 36 37 34 38 40 17 -8 24 3 21 28 22 -19 -20 -20 -20 -20 -20 -20 -20 -20 -20 -20 -20 -20 -20 -20 -20 -20 -20 -20 -20 -20 -20 -20 -20 -20 -20 -20 -20 -20 -20
-20 -20 -20 -20 -20 -20 -20 -20 -6 33 14 23 37 37 37 44 26 26 46 40 40 39 18 -20 -20 -20 -20 -20 -20 -20 -6 -14 -20 -20 -20 -19 -20 -20 -20 -20 -20 -20 -20 -20 -20 -20 -20 -20 -20 -20 -20 -20 -20 -20
-18 -20 -20 -20 -20 -20 -20 6 -4 14 0 5 -6 27 16 -10 26 26 12 7 13 -8 -16 -20 -20 -20 -20 -20 -20 -20 -20 -20 -20 -20 -20 -17 -20 -20 -20 -20 -20 -20 -20 -20 -20 -20 3 -20 -20 -20 -20 -20 -5 -20
-20 -20 -20 -20 1 -14 8 -20 -4 -11 -15 9 11 2 -5 -14 -10 -2 2 3 -17 -20 -20 -20 -20 -20 -20 -20 -20 -20 -20 -20 -20 -20 -20 -20 -5 -12 10 -14 -20 -20 -20 -20 -20 -20 -20 7 18 7 -20 -20 -20 -20
6 5 16 14 2 -4 -20 -20 -20 -20 -20 -20 -20 -20 -20 -20 -20 -20 -20 -20 -20 -20 -20 -20 -20 -20 -20 -20 -20 -20 -20 -20 -20 -17 -18 -9 -7 -20 -20 -15 -14 -20 -20 -20 -20 -15 -5 8 15 -15 -15 -20 -20 -20
-20 -20 -20 -20 -20 -20 -20 -20 -20 -20 -20 -20 -20 -20 -20 -20 -20 -20 -20 -20 -20 -20 -20 -20 -20 -20 -20 -20 -20 -20 -20 -20 -20 -16 -20 -5 -20 -20 -20 -20 -20 -14 -14 -20 -20 -20 4 -20 3 -16 -20 -20 -20 -20
11 5 3 -20 -20 -20 -20 -20 -20 -20 -20 -20 -20 -20 -20 -20 -20 -20 -20 -20 -20 -20 -20 -20 -4 -20 14 -20 -20 -20 -20 -20 -20 -20 -5 -16 -7 -20 -20 -20 -20 -20 -20 -20 -20 -20 -20 -12 -14 -20 -20 -20 -20 -20
-3 -20 -5 -20 -20 -20 -20 -20 -20 -20 -20 -20 -20 -20 -20 -20 -20 -20 -20 -20 -15 -20 24 -5 -2 -9 -17 -20 -17 -20 -20 -20 -20 -20 4 -20 -20 -20 -20 -20 -15 -20 -20 -20 -20 -12 -14 -20 -20 -20 -20 -20 -20 -20
-20 -20 -20 -20 -20 -20 -20 -20 -20 -15 -20 -20 -2 7 -8 -20 -20 -20 -20 -20 -20 -20 -20 -20 -20 -20 -20 -20 -20 -20 -20 -20 -20 -20 -20 -20 -20 -20 -20 -20 -20 -20 -20 -20 -20 -20 -20 -20 -20 -20 -20 -20 -20 -20
-20 -20 -20 -20 -20 -2 -19 -20 -20 -15 -20 -9 -8 -8 -20 12 3 -19 -20 -20 -20 -20 -13 -20 -20 -20 -20 -20 -20 -20 -20 -20 -20 -19 -17 -20 -20 -20 -12 -20 -20 -20 -20 -20 -20 -20 -20 -20 -20 -20 -20 -20 -20 -20
-20 -20 -20 -20 -20 -20 -20 -20 -20 -20 -20 -20 -20 -20 -20 -20 -20 -20 -20 -20 -20 14 -6 -20 -17 6 -16 -20 4 -20 -20 -20 -20 -20 -20 -20 -20 -20 -7 -20 -20 -20 -20 -20 -20 -20 -20 -20 -20 -20 -20 -20 -20 -20
-20 -20 -20 -20 -20 -20 -20 -20 -20 -20 -20 -18 -20 -20 -20 -20 -18 -20 -20 -11 -20 5 17 -18 -20 12 23 1 -20 -20 -20 -20 -20 -20 -20 -20 -10 -18 5 -20 -20 -20 -20 -20 -20 4 -20 -19 -20 -20 -20 -20 -20 -20
-20 -20 -20 -20 -20 -20 -20 -20 -20 -20 -20 -20 -20 -20 -20 -20 -20 -3 -1 -9 12 11 -2 -20 2 26 -10 -20 -20 -20 -20 -20 -20 -20 -20 -20 -9 -10 -20 -20 -20 -20 -20 -20 -20 -20 -7 -20 -20 -20 -20 -20 -20 -20
-20 -20 -20 -20 -20 -20 -20 -20 -20 -20 -20 -20 -20 -20 -20 -20 -15 -20 -20 -10 4 -20 -20 -20 -20 -20 -20 -20 -20 -20 -20 -20 -20 -20 -20 -19 -11 -16 -19 -20 -20 -20 -20 -20 -20 -20 -20 -20 -20 -20 -20 -20 -20 -20
-20 -20 -20 -20 -20 -20 -20 -20 -20 -20 -20 -20 -20 -20 -20 -20 -20 -18 -20 -20 -20 -20 -20 -20 -20 -20 -20 -20 -20 -20 -20 -20 -20 -20 -20 -20 -20 -20 -20 -20 -20 -20 -20 -20 -20 -20 -20 -20 -18 -20 -20 -18 -20 -19
-20 -20 -20 -20 -20 -20 -20 -20 -20 -20 -20 -20 -20 -20 -20 -20 -20 -20 -17 -20 -20 -20 -20 -20 -20 -20 -20 -20 -20 -20 -20 -20 -20 -20 -20 -20 -20 -20 -20 -20 -20 -20 -20 -20 -20 -20 -20 -20 -20 -20 -20 -20 -20 -20
-20 -20 -20 -20 -20 -6 -20 -20 -19 -19 -20 -18 6 -20 -20 -20 -20 -20 -9 -6 -17 -20 -20 -20 -20 -20 -20 -20 -20 -20 -20 -20 -20 -20 -20 -20 -20 -20 -20 -19 -19 -20 -20 -20 -19 -20 -20 -20 -20 -20 -20 -20 -20 -20
-20 -20 -20 -20 -20 -20 -20 -20 -20 -6 -19 -20 -20 -20 -20 -20 -20 -20 -13 -18 -20 -20 -20 -20 -20 -20 -20 -20 -20 -20 -20 -20 -20 -20 -20 -20 -20 -20 -20 -20 -20 -20 -20 -20 -20 -20 -20 -20 -20 -20 -20 -20 -20 -20
-20 -20 -20 -20 -20 -20 -20 -20 -20 -20 -20 -20 -20 -20 -20 -20 -20 -20 -19 -7 -20 -20 -18 -10 -5 -11 -20 -20 -20 -20 -20 -20 -20 -20 -20 -20 -20 -20 -20 -20 -20 -20 -20 -20 -20 -20 -20 -20 -20 -20 -20 -20 -20 -20
-20 -20 -20 -20 -20 -20 -20 -20 -20 -20 -20 -20 -20 -20 -19 -20 -20 -20 -20 -20 -20 -20 -20 5 16 22 -14 -20 -20 -20 -20 -20 -20 -20 -20 -20 -20 -20 -20 -20 -20 -20 -18 -20 -20 -20 -20 -20 -20 -20 -20 -20 -20 -20
-20 -20 -20 -20 -20 -20 -20 -20 -20 -20 -20 -20 -20 -20 -20 -20 -20 -20 -20 -20 -20 -20 -20 -8 -5 -11 -3 -14 3 -18 -20 -20 -20 -20 -20 -20 -20 -20 -20 -20 -20 -18 -19 -20 -20 -20 -20 -20 -20 -20 -20 -20 -20 -20
-20 -20 -20 -20 -20 -20 -20 -20 -20 -20 -20 -20 -20 -20 -20 -20 -20 -20 -20 -20 -20 -20 -20 -20 -19 -7 -15 -19 -15 -17 -20 -20 -20 -20 -20 -20 -20 -20 -20 -20 -20 -20 -20 -20 -20 -20 -20 -20 -3 -20 -20 -20 -20 -20
-20 -20 -20 -20 -20 -20 -20 -20 -20 -20 -20 -20 -20 -20 -20 -20 -20 -20 -20 -20 -20 -20 -20 -20 -20 -20 -8 -4 -16 -20 -20 -20 -20 -20 -20 -20 -20 -20 -20 -20 -20 -20 -20 -20 -20 -20 -20 -20 -20 -20 -20 -20 -20 -20
-20 -20 -20 -20 -20 -20 -20 -20 -20 -20 -20 -20 -20 -20 -20 -20 -11 -20 -20 -20 -20 -20 -20 -19 -20 -20 -20 -20 -20 -17 -20 -20 -20 -20 -20 -20 -20 -20 -20 -20 -20 -20 -20 -20 -20 -20 -20 -20 -20 -20 -12 -20 -20 -20
-20 -20 -20 -20 -20 -17 7 8 -2 -20 -20 -20 -20 -20 -20 -20 -20 -20 -20 -20 -20 -20 -20 -20 -20 -20 -20 -20 -20 -20 -20 -20 -7 6 9 8 8 -5 -18 -20 -20 -20 -20 -20 -20 -20 -20 -20 -20 -13 -20 -20 -20 -20

GFSWCAN_prec_radar_153.txt.gz
Reflectivity
15 12 16 18 20 14 15 19 19 15 17 11 17 17 25 31 20 20 14 -0 -11 -19 -20 -12 0 -18 7 18 18 30 25 18 1 11 9 29 2 20 19 1 -20 9 15 18 10 7 -18 -20 -20 -20 -20 -20 -20 -20
24 26 17 16 27 18 8 12 13 18 12 16 17 18 23 27 38 24 4 -10 4 17 -20 -10 -20 -20 19 13 12 8 28 27 -17 16 -19 -7 -18 -17 27 20 14 5 -12 -14 1 4 -20 -20 -20 -20 -20 -20 -20 -20
16 26 14 26 19 9 10 15 13 16 15 18 15 15 22 33 26 11 -20 -20 16 17 -6 -19 -20 -20 -11 -13 -8 -12 -15 21 15 -20 -14 -16 -20 -17 8 19 20 34 20 24 -3 -20 -19 -20 -20 -20 -20 -20 -20 -20
12 15 23 16 4 12 -20 14 14 18 19 24 33 30 21 28 19 4 -14 -20 -20 -16 6 -20 -13 3 2 11 5 2 7 34 14 -6 -8 -20 -20 -11 -7 8 0 15 13 12 -4 -20 -20 -20 -20 -20 -20 -20 -20 -20
4 0 5 19 16 14 16 18 19 27 20 26 16 15 26 18 16 10 -0 -20 -20 16 13 8 2 17 12 24 37 35 29 41 23 11 -14 -20 -20 -18 -19 -19 -13 3 -18 -20 -20 -19 -17 -20 -20 -20 -20 -20 -20 -20
11 15 29 24 14 16 23 32 19 20 27 32 14 18 -19 13 20 23 17 4 -20 14 3 17 12 18 16 37 38 5 38 30 43 19 18 -20 -20 -20 -20 -20 -20 -20 -6 -19 -20 -20 -19 -20 -20 -20 -20 -20 -20 -20
13 14 13 24 34 33 24 18 15 2 9 -14 10 6 14 18 -3 1 -20 -6 -20 6 25 19 32 9 -5 9 11 32 30 27 29 14 -17 -20 -20 -20 -20 -20 -20 -20 -20 -20 -20 -20 -20 -20 -19 -20 -20 -20 -20 -20
11 1 -13 -20 -20 -20 -20 -20 -20 -20 -20 -3 14 13 17 5 -15 -8 1 10 -3 6 11 26 27 33 1 -20 -20 4 9 -14 -16 -20 -20 -20 -20 -20 -20 -20 -20 -20 -20 -20 -20 -20 -20 -20 -20 -20 -20 -20 -20 -20
10 -13 -20 -20 -20 -20 -20 -20 -20 -20 -20 2 7 -5 -11 -6 -9 -20 -20 -9 -0 -8 22 19 21 28 -7 -20 -20 -20 -19 -20 -20 -20 -20 -20 -20 -20 -20 -20 -20 -20 -20 -20 -20 -20 -20 -20 -20 -20 -20 -20 -20 -20
-20 -20 -20 -20 -20 -20 2 10 -8 -20 12 27 29 20 7 -20 7 -4 12 -8 21 12 37 3 -20 -20 -20 -20 -20 -20 -20 -20 -20 -20 -20 -20 -20 -20 -20 -20 -20 -20 -20 -20 -20 -20 -20 -20 -20 -5 17 -18 15 -6
-20 -20 -20 -5 14 3 2 9 25 23 36 34 29 28 28 35 31 15 30 25 6 12 8 24 -19 -20 -20 -20 -20 -20 -20 -20 -20 -20 -20 -20 -20 -20 -20 -20 -20 -20 -20 -20 -20 -20 -20 -20 -20 -20 -20 -9 23 20
-20 -11 21 17 13 11 -0 22 25 17 14 29 22 33 22 28 16 17 3 -2 -15 -20 -16 -7 -20 -20 -20 -20 -20 -20 -20 -20 -20 -20 -20 -20 -20 -20 -20 -20 -20 -20 -20 -20 -20 -20 -20 -4 21 -15 -20 -20 1 11
-18 -15 -15 -20 -20 -20 -20 -17 14 17 8 -13 -20 -19 1 -8 8 11 -18 -20 -20 -20 -20 -20 -20 -20 -20 -20 -20 -20 -20 -20 -20 -20 -20 -20 -20 -20 -20 -20 -20 -18 -20 -20 -20 -20 -20 -20 -20 -20 4 -15 -20 11
-20 -20 -20 -20 -20 -20 -20 -20 -20 -20 -19 -20 -20 -20 -20 -20 -20 -15 -20 -20 -20 -20 -20 -20 -20 -20 -20 -20 -20 -20 -20 -20 -20 -20 -20 -20 -20 -20 -20 -20 -20 -12 5 9 -20 -20 -20 -20 -20 4 -8 -20 -20 -20
-20 -20 -20 -20 -20 -20 -20 -20 -20 -20 -20 -20 -20 -20 -20 -20 -9 -19 -20 -20 -20 -20 -20 -20 -20 -20 -20 -20 -20 -20 -13 -20 -20 -20 -20 -20 -19 -20 -20 -20 -20 -20 -20 -20 -20 -20 -20 -20 -20 -20 -10 -16 -20 -20
-20 -20 -20 -20 -20 -20 -20 -20 -20 -20 -20 -20 -20 -20 -20 -20 -20 -20 -20 -20 -20 -20 -20 -20 -20 -20 -20 -20 -20 -20 -20 -20 -20 -20 -20 -20 -2 -20 -20 -20 -20 -20 -20 -20 -20 -20 -13 6 6 15 5 -20 -20 -20
-20 -20 -20 -20 -20 -20 -20 -20 -20 -20 -20 -20 -20 -20 -20 -20 -20 -20 -20 -20 -20 -20 -20 -20 -20 -20 -20 -20 -20 -20 -20 -20 -20 -20 -20 -20 -20 -20 -20 -20 -20 -20 -20 -20 -20 -20 -20 -20 -19 -20 -20 -20 -20 -20
-20 -20 -20 -20 -20 -20 -20 -20 -20 -20 -20 -20 -8 -20 -20 -20 -20 -20 -20 -20 -20 -20 -14 -20 -20 -20 -20 -20 -20 -20 -20 -20 -20 -20 -20 -20 -20 -20 -20 -20 -20 -20 -20 -20 -20 -20 -20 -20 -20 -20 -20 -20 -20 -20
-20 -20 -20 -20 -20 -20 -20 -20 -20 -20 -20 -20 -20 -20 -20 -20 -20 -20 -14 -20 -20 1 -5 -20 -20 -20 -20 -20 -20 -20 -15 -12 -20 -20 -20 -20 -20 -20 7 -3 -20 -20 -20 -20 -20 -20 -20 -20 -20 -20 -20 -20 -20 -20
-20 -20 -20 -20 -20 -20 -20 -20 -20 -20 -20 -20 -20 -20 -20 -20 -20 -20 -20 -14 -4 7 -6 -4 -20 -20 -8 10 4 -20 -12 -13 -20 -20 -20 -20 -20 -20 1 -2 -20 -20 -20 -20 -20 3 -20 -20 -20 -20 -20 -18 -20 -20
-20 -20 -20 -20 -20 -20 -20 -20 -20 -20 -20 -20 -20 -20 -20 -20 -20 -20 -19 3 -19 8 -1 -20 -20 -20 4 -20 -20 -20 -20 -20 -20 -20 -20 -20 -20 -20 -19 -5 -20 -20 -20 -20 -20 -14 -1 -20 -20 -20 -20 -20 -20 -20
-20 -20 -20 -20 -20 -20 -20 -20 -20 -20 -20 -20 -20 -20 -20 -20 -20 -10 0 -13 3 -19 -20 -20 -20 -20 -20 -20 -18 -20 -20 -20 -20 -20 -20 -20 -20 -19 -19 -20 -20 -20 -20 -20 -20 -20 -20 -20 -20 -20 -20 -20 -20 -20
-20 -20 -20 -20 -20 -20 -20 -20 -20 -20 -20 -20 -20 -20 -20 -20 -20 -3 -20 -20 -20 -20 -20 -20 -20 -13 -20 -18 -20 -20 -20 -20 -20 -20 -20 -20 -20 -20 -20 -20 -20 -20 -20 -20 -20 -20 -20 -20 -20 -20 -20 -20 -20 -20
-20 -20 -20 -20 -20 -20 -20 -20 -20 -20 -20 -20 -20 -20 -6 -20 -16 -20 -20 -20 -20 -20 -20 -16 -18 -20 -20 -20 -20 -20 -20 -20 -20 -20 -20 -20 -20 -20 -20 -20 -19 -20 -20 -20 -20 -20 -20 -20 -18 -18 -20 -20 -20 -20
-20 -20 -20 -20 -20 -9 -20 -20 -20 -20 -20 -20 -20 -20 -20 -20 -20 -20 -20 -20 -20 -20 -20 -20 8 9 -14 -20 -20 -20 -20 -20 -20 -20 -20 -20 -20 -19 -15 -16 -20 -20 -20 -20 -17 -20 -20 -20 -20 -20 -20 -20 -20 -20
-20 -20 -20 -20 -20 -20 -20 -20 -20 -20 -20 -20 -20 -20 -20 -20 -20 -20 -4 -6 6 5 1 0 -10 -16 -20 -19 -19 -20 -20 -20 -20 -20 -20 -20 -20 -20 -20 -20 -19 -17 -20 -20 -20 -20 -20 -20 -20 -20 -20 -20 -20 -20
-20 -20 -20 -20 -20 -20 -20 -20 -20 -20 -20 -20 -20 -20 -20 -20 -20 -20 -20 -20 -16 -20 -20 -20 -20 -19 -4 -5 -14 -18 -20 -20 -20 -20 -20 -17 -20 -19 -18 -20 -20 -20 -20 -20 -20 -20 -20 -20 -20 -20 -20 -20 -20 -20
-20 -20 -20 -20 -20 -20 -20 -20 -20 -20 -20 -20 -20 -20 -20 -20 -20 -20 -20 -20 -20 -20 -20 -20 -15 19 13 6 3 -4 -20 -20 -20 -20 -20 -20 -20 -20 -20 -20 -20 -20 -20 -20 -20 -20 -20 -20 -20 -20 -20 -20 -20 -20
-20 -20 -20 -20 -20 -20 -20 -20 -20 -20 -20 -20 -20 -20 -20 -20 -20 -20 -20 -20 -20 -20 -20 -20 -20 -20 -14 -16 15 -1 -20 -20 -20 -20 -20 -20 -20 -20 -20 -20 -20 -20 -20 -20 -20 -20 -20 -20 -20 -20 -20 -20 -20 -20
-20 -20 -20 -16 -19 -20 -20 -20 -20 -20 -20 -7 2 -20 -20 -20 -20 -20 -20 -20 -20 -20 -20 -20 -20 -20 -20 -17 -14 7 9 3 -13 -20 -20 -20 -20 -20 -20 -20 -20 -20 -17 -18 -20 -20 -20 -20 -20 -20 -20 -20 -20 -20
-20 -20 -13 -7 -12 -20 -20 -20 -20 -20 -20 -20 -20 -20 -20 -20 -20 -20 -20 -20 -20 -20 -20 -20 -20 -20 -20 -13 2 -3 -10 -13 -20 -20 -20 -20 -20 -20 -20 -20 -20 -20 -20 -20 -20 -20 -20 -20 -20 -20 -20 -20 -20 -20
-17 1 -19 -20 -13 -19 -20 -14 -15 -20 -20 -20 -20 -20 -20 -20 -20 -20 -20 -20 -20 -20 -20 -20 -20 -20 -20 -17 10 12 -18 -20 -20 -20 -20 -20 -20 -20 -20 -20 -20 -20 -20 -20 -20 -20 -20 -20 -20 -20 -20 -20 -20 -20
-20 -20 -20 -20 -20 -20 -20 -20 -20 -20 -20 -20 -20 -20 -20 -20 -20 -20 -20 -20 -18 -20 -20 -20 -20 -18 -19 -20 -20 -20 -20 -20 -20 -20 -20 -20 -20 -17 -18 -20 -20 -20 -20 -20 -20 -20 -20 -20 -20 -20 -20 -20 -20 -20

GFSWCAN_prec_radar_156.txt.gz
Reflectivity
11 13 15 14 15 14 14 13 12 15 18 18 18 18 20 17 18 27 21 -20 -20 -14 -20 -20 -20 -20 -20 -20 -20 -8 5 5 27 22 3 -7 20 -14 -5 -20 -20 -18 -2 9 5 16 -1 10 -20 -20 -20 -20 -20 -20
14 16 17 11 16 13 15 17 14 15 18 18 17 17 17 20 15 24 30 -5 -20 11 -9 -20 -20 -20 -20 -20 -17 12 -8 23 20 28 25 -17 -20 10 14 12 -4 -3 -13 -4 7 -20 -20 -20 -20 -20 -20 -20 -20 -20
11 19 6 19 16 17 12 16 16 15 15 17 19 17 25 22 16 31 37 19 23 33 2 -20 -20 -20 -20 -20 -20 2 -9 26 24 32 35 7 -3 -20 -17 -2 -20 -20 -2 3 32 -6 -20 -19 -18 -20 -20 -20 -20 -20
28 21 19 37 18 18 18 33 14 10 12 21 26 15 18 23 31 37 34 30 22 15 -20 -20 -20 -20 -20 -20 -20 -20 8 14 21 14 20 22 -20 -20 -20 -20 -20 -19 -19 8 33 -9 -20 -20 -20 -20 -20 -20 -20 -20
27 22 16 16 30 35 24 -0 14 14 13 19 21 12 20 22 34 31 38 32 5 -16 -20 -10 -20 -20 -20 -6 -1 -19 -5 9 9 9 18 27 -20 -20 -20 -20 -20 -13 -10 -9 15 22 19 -7 -20 -20 -20 -20 -20 -20
11 13 9 5 14 3 15 -20 16 9 9 29 31 31 33 39 41 32 29 12 -20 -20 10 -10 -10 -6 -20 -20 -4 5 15 33 31 35 32 14 -20 -20 -20 -20 -20 -20 -20 -20 -20 -20 -20 -20 -20 -20 -20 -20 -20 -20
12 24 8 11 13 13 12 16 27 27 33 27 25 24 28 28 22 -2 -20 -20 -20 4 17 9 -20 14 -15 16 12 18 25 43 36 31 31 -9 -20 -20 -20 -18 -20 -20 -20 -20 -20 -19 -20 -20 -20 -20 -20 -20 -20 -20
20 28 30 30 32 32 28 26 21 8 13 30 27 25 24 16 5 -17 -19 -16 -20 7 -5 10 18 23 17 9 14 27 29 33 22 24 24 15 -19 -20 -17 -15 -20 -20 -20 -20 -20 -20 -20 -20 -20 -20 -20 -20 -20 -20
-2 -14 -13 -14 -17 -16 -14 -15 -17 -16 12 17 3 21 8 -9 -16 -20 -18 12 7 -10 5 -3 12 27 28 1 4 3 14 7 -7 11 15 8 -20 -20 -12 -20 -20 -20 -20 -20 -20 -20 -20 -20 -20 -20 -20 -20 -20 -2
-20 -20 -20 -20 -20 -20 -20 -20 -10 1 -20 -20 -20 -20 -18 -15 -20 -20 -19 -6 29 6 -19 6 20 23 33 15 13 9 -18 3 7 -11 -12 -20 -20 -20 -20 -20 -20 -20 -20 -20 -20 -20 -20 -20 -20 -20 -20 -20 -20 18
-20 -17 -20 -20 10 29 34 20 12 12 -20 -20 -20 -16 -15 -17 -20 -20 1 -20 -15 18 -20 -4 7 29 -10 12 8 -20 -20 -20 -20 -20 -20 -20 -20 -20 -20 -20 -20 -20 -20 -20 -20 -20 -20 -20 -20 -20 -20 -20 -20 -20
-20 -20 3 14 19 19 23 26 29 31 20 22 35 33 14 17 5 8 19 -3 15 -11 -20 -6 26 16 -7 -13 -20 -20 -20 -20 -20 -20 -20 -20 -20 -20 -20 -20 -20 -20 -20 -20 -20 -20 -20 -20 -20 -20 -20 -20 -20 -8
-20 -20 -20 -20 9 9 6 12 0 21 21 28 31 15 19 8 3 10 -18 -18 -20 -20 -20 6 -14 -14 -20 -20 -20 -20 -20 -20 -20 -18 -20 -20 -20 -20 -20 -20 -20 -20 -20 -20 -20 -20 -20 -20 -20 -20 -20 5 -20 -2
-20 -20 -20 -20 -20 -20 -6 -11 -6 13 -15 -20 -12 3 -20 -18 -20 -20 -20 -20 -20 -19 -12 -20 -20 -20 -20 -20 -20 -20 -20 -20 -20 -20 -20 -20 -20 -20 -20 -20 -20 -20 -20 -20 -20 -20 -20 -20 -20 -20 -20 -15 21 1
-20 -20 -20 -20 -20 -20 -20 -20 -20 -20 -20 -20 -20 -20 -20 -20 -19 -9 -20 -20 -20 -20 -20 -20 -20 -20 -20 -20 -20 -20 -20 -20 -20 -20 -20 -20 -20 -20 -20 -20 -20 -20 -20 -20 -20 -20 -20 -20 -20 -20 -12 5 20 8
-20 -20 -20 -20 -20 -20 -20 -20 -20 -20 -20 -20 -20 -20 -20 -20 -20 -20 -20 -20 -20 -20 -20 -20 -20 -20 -20 -20 -20 -20 -20 -20 -20 -20 -20 -20 -20 -20 -20 -20 -20 -20 -20 -20 -20 -20 -20 -20 -17 -2 -4 -13 -16 -16
-20 -20 -20 -20 -20 -20 -20 -20 -20 -20 -20 -20 -20 -11 -20 -20 -20 -20 -20 -20 -20 -20 -20 -20 -20 -20 -20 -20 -20 -20 -20 -20 -20 -20 -20 -20 -20 -20 -13 -20 -20 -20 -20 -20 -20 -20 -20 -17 -17 -15 -3 -15 -12 -18
-20 -20 -20 -20 -20 -20 -20 -20 -20 -20 -20 -20 -20 -20 -4 -20 -20 -20 -20 -5 -20 -20 -20 -20 -20 -20 -20 -20 -20 -20 -20 -20 -20 -20 -20 -20 -20 -20 -20 -20 -20 -20 -20 -20 -20 -20 -20 -20 -20 -20 -20 -20 -20 -20
-20 -20 -20 -20 -20 -20 -20 -20 -20 -20 -20 -20 -20 -10 -20 -20 -20 -20 -20 -20 -20 -8 -20 -20 -20 -20 -20 -20 -20 -20 -20 -20 -20 -20 -20 -20 -20 -19 -10 -11 -13 -20 -20 -20 -20 -20 -20 -20 -20 -20 -20 -20 -20 -20
-20 -20 -20 -20 -20 -20 -20 -20 -20 -20 -20 -20 -20 -20 -20 -20 -20 -20 -19 -10 -11 -18 -20 -8 -20 -20 -20 -20 -20 -20 -20 -20 6 1 -12 -20 -20 -19 -4 5 5 -20 -20 -20 -20 -2 -20 -20 -20 -20 -20 -15 -20 -20
-20 -20 -20 -20 -20 -20 -20 -20 -20 -20 -20 -20 -20 -20 -20 -20 -20 -20 -20 -2 2 -20 -20 -20 -20 -20 -17 -12 -20 -13 -13 -20 -20 -20 -20 -20 -20 -20 -20 10 -7 -7 -20 -20 -20 -14 -2 -20 -20 -20 -20 -20 -20 -20
-20 -20 -20 -20 -20 -20 -20 -20 -20 -1 -20 -20 -20 -20 -20 -20 -20 -20 14 -11 -8 -20 -20 -20 -20 -20 -20 11 -7 -20 -20 -20 -20 -20 -20 -20 -20 -20 -20 -20 -20 -20 -20 -20 -20 -20 -20 -20 -20 -20 -20 -20 -20 -20
-20 -20 -20 -20 -20 -20 -20 -20 -20 -20 -20 -20 -20 -20 -20 -20 -20 0 -20 -20 -20 -20 -20 -20 -20 -20 -20 -20 -20 -20 -20 -20 -20 -20 -20 -20 -20 -20 -20 -18 -20 -20 -20 -20 -20 -20 -20 -17 -20 -20 -20 -20 -20 -20
-20 -20 -20 -20 -20 -20 -20 -20 -20 -20 -20 -20 -20 -20 -20 -20 -13 -15 -20 -20 -20 -20 -20 -17 8 -7 8 2 -2 -20 -20 -20 -20 -20 -20 -20 -20 -20 -20 -20 -10 -17 -19 -18 -20 -20 -20 -20 -20 -20 -20 -20 -20 -20
-20 -20 -20 -20 -20 -20 -20 -20 -20 -20 -20 -20 -20 -20 -20 -20 -20 -20 -20 -15 -14 -14 -20 -10 14 18 17 13 12 4 -19 -20 -20 -20 -20 -20 -20 -16 -16 -18 -19 -18 -20 -20 -20 -20 -20 -20 -20 -17 -18 -20 -20 -20
-20 -20 -20 -20 -20 -20 -20 -20 -20 -20 -20 -20 -20 -20 -20 -20 -20 -20 -18 -18 -18 -12 -20 -20 -15 1 0 13 12 10 -2 -12 -20 -20 -20 -20 -20 -20 -20 -20 -20 -20 -19 -20 -20 -20 -20 -20 -20 -20 -20 -20 -20 -20
-20 -20 -20 -20 -20 -20 -20 -20 -20 -20 -20 -20 -20 -20 -20 -20 -20 -20 -0 4 -16 -20 -20 -20 -20 -20 -20 -20 5 -7 -20 -13 -18 -20 -20 -19 -20 -20 -20 -20 -20 -20 -20 -20 -20 -20 -20 -20 -20 -20 -20 -20 -20 -20
-20 -20 -20 -20 -20 -20 -20 -20 -20 -20 -20 -7 -3 -20 -20 -20 -20 -18 -20 -20 -20 -20 -20 -20 -20 -20 -20 9 6 3 -20 -20 -20 -20 -20 -19 -20 -20 -20 -20 -20 -20 -20 -20 -20 -20 -20 -20 -20 -20 -20 -20 -20 -20
15 9 1 -2 -18 -20 -20 -20 -20 -20 -20 -20 -20 -20 -20 -20 -20 -20 -20 -20 -20 -20 -20 -20 -20 -20 -20 -19 -4 13 3 -20 -18 -18 -20 -20 -20 -20 -20 -20 -20 -20 -20 -20 -20 -20 -20 -20 -20 -20 -20 -20 -20 -20
9 -7 7 -15 -20 -20 1 11 -12 -19 -16 -20 -20 -20 -20 -20 -20 -20 -20 -20 -20 -20 -20 -20 -20 -20 -20 -20 -20 -6 12 5 -15 -19 -20 -20 -20 -20 -20 -20 -20 -20 -20 -20 -20 -20 -20 -20 -20 -20 -20 -20 -20 -20
13 -3 7 -20 -20 -20 -20 -20 -20 -20 -20 -20 -20 -20 -20 -17 -18 -20 -20 -20 -20 -20 -20 -20 -20 -6 -10 -20 -20 -16 4 7 -10 -20 -20 -20 -20 -20 -20 -20 -20 -20 -18 -15 -20 -20 -20 -20 -20 -20 -20 -20 -20 -20
-7 -20 -20 -9 -5 -12 -20 -20 -20 -20 -20 -20 -20 -20 -20 -20 -20 -20 -20 -20 -20 -20 -19 -20 -20 -7 -20 -17 -17 -2 -10 -19 -20 -20 -20 -20 -20 -20 -18 -16 -20 -20 -20 -20 -20 -20 -20 -20 -20 -20 -20 -20 -20 -20
-20 -20 -20 -18 -13 -20 -20 -14 -20 -20 -20 -20 -20 -20 -20 -20 -20 -20 -20 -20 -19 -16 -17 -16 -11 -10 -10 -15 -17 -20 -20 -20 -20 -20 -20 -20 -20 -20 -20 -20 -20 -20 -20 -20 -20 -20 -20 -20 -20 -20 -20 -20 -20 -20

GFSWCAN_prec_radar_159.txt.gz
Reflectivity
16 13 12 14 16 18 17 16 14 14 24 25 19 10 9 11 3 -2 -14 -20 -20 -20 -20 -20 -20 -20 -20 -20 -20 -19 -20 -11 4 14 14 8 6 18 -17 -20 -20 -11 -1 18 20 19 8 -20 -20 -20 -20 -20 -19 -20
17 3 14 6 -10 16 19 16 18 12 18 21 23 15 12 8 14 23 17 -20 -20 8 -18 -20 -20 -20 -20 -20 -20 -20 -20 -19 11 -0 24 29 13 -14 -20 -20 -20 9 -6 8 -18 -20 -20 -20 -20 -20 -20 -20 -20 -20
13 -5 9 15 13 15 16 15 18 14 12 17 29 16 16 15 13 29 30 10 5 33 8 -20 -20 -20 -20 -20 -20 -2 7 -0 -3 6 20 23 22 27 -20 -20 -20 -20 -6 17 17 -4 -20 -20 -20 -20 -20 -20 -20 -20
26 20 29 2 14 10 15 15 14 14 12 10 24 17 16 18 16 27 34 26 3 10 15 -8 -10 -20 -20 -20 -20 -20 -20 -20 1 19 22 15 18 20 15 -20 -20 -20 -20 -20 -20 -20 -20 -20 -20 -8 -6 -20 -20 -20
17 17 17 19 1 15 17 18 18 15 13 11 13 18 20 18 21 30 32 21 9 13 11 -9 -20 -20 -20 -20 -20 -20 -20 -1 10 17 16 14 10 14 22 -20 -20 -20 -20 -20 -20 -20 -20 9 16 22 -7 12 -0 -18
11 20 22 18 21 20 21 26 36 33 15 13 22 38 20 29 37 32 32 36 37 31 27 6 -20 -20 -20 -20 -20 -20 -20 6 14 15 9 21 2 29 6 -20 -20 -20 -20 -20 -20 -20 -20 -20 -7 -0 -20 -20 -20 -13
-4 11 13 14 8 13 16 7 21 21 16 18 24 11 31 36 31 30 22 24 20 21 -2 -20 -20 -0 -3 8 -17 1 4 9 11 25 10 10 9 15 4 -15 -11 -20 -20 -20 -20 -20 -20 -20 -20 -20 -20 -20 6 -20
6 -3 6 -2 -11 -15 -4 12 7 8 21 41 32 33 34 36 37 34 18 -5 -20 3 -20 -14 -1 12 18 24 15 16 12 18 24 27 27 -1 -11 10 -5 6 -9 -20 -20 -20 -20 -20 -20 -20 -20 -20 -20 -20 -20 -20
-15 -13 7 8 10 11 19 26 31 35 36 33 30 24 19 -2 -12 -12 -9 -3 -16 -2 -20 0 -1 -1 34 38 26 26 33 20 16 10 17 13 27 17 11 -6 -20 -20 -20 -20 -20 -20 -20 -20 -20 -20 -20 -20 -20 -20
-20 -20 -20 -20 -20 -20 -20 14 17 12 11 7 2 -8 -7 -6 -17 -20 -20 -13 16 27 -6 -1 -6 -18 17 26 22 22 18 1 -1 -16 20 21 4 16 2 -20 -20 -20 -20 -20 -20 -20 -20 -20 -20 -20 -20 -20 -20 -20
13 13 -12 -20 7 -7 -6 -20 -20 -20 -20 -20 -20 -18 -20 -20 -20 -20 -20 -20 -20 -9 -3 -20 -4 5 10 22 17 16 -4 -10 7 3 -17 2 14 2 -15 -20 -20 -20 -20 -20 -20 -20 -20 -20 -20 -20 -20 -20 -20 -20
-12 33 36 11 -19 4 5 4 -5 -20 -20 -20 -15 -6 7 -20 -20 -20 -17 -14 -6 -2 -20 -17 -19 -20 -9 32 10 -20 -2 -15 -20 -20 -20 -20 -20 -20 -20 -20 -20 -20 -20 -20 -20 -20 -20 -20 -20 -20 -20 -20 -20 -20
-20 -1 17 20 21 24 19 17 21 27 -16 -7 8 -7 9 -4 -2 -20 -19 19 -20 -20 -20 -12 20 19 5 -20 -20 -20 -20 -20 -20 -20 -20 -20 -20 -20 -20 -20 -20 -20 -20 -20 -20 -20 -20 -20 -20 -20 -20 -20 -20 -20
-20 -20 -20 -20 -20 -20 -20 -1 6 15 -6 -2 4 14 -15 -20 -20 -20 -20 -20 -20 -20 -20 -14 -20 -20 -20 -20 -20 -20 -20 -20 -20 -20 -20 -20 -20 -20 -20 -20 -20 -20 -20 -20 -20 -20 -20 -20 -20 -20 -20 -20 -16 -4
-20 -20 -20 -20 -20 -20 -20 -20 -20 -20 -20 -20 -20 -20 -20 -20 -20 -19 -13 -20 -20 -20 -20 -20 -20 -20 -20 -20 -20 -20 -20 -20 -20 -20 -20 -20 -20 -20 -20 -20 -20 -20 -20 -20 -20 -20 -20 -20 -20 -20 -20 -20 0 22
-20 -20 -20 -20 -20 -20 -20 -20 -20 -20 -20 -20 -20 -20 -20 -20 -20 -20 -20 -20 -20 -20 -20 -20 -20 -20 -20 -20 -20 -20 -20 -20 -20 -20 -20 -20 -20 -20 -20 -20 -20 -20 -20 -20 -20 -20 -20 -20 -20 -20 -20 -20 -20 -17
-20 -20 -20 -20 -20 -20 -20 -20 -20 -20 -20 -20 -20 -20 -20 -20 -20 -20 -20 -20 -20 -20 -20 -20 -20 -20 -20 -20 -20 -20 -20 -20 -20 -20 -20 -20 -20 -20 -20 -20 -20 -20 -20 -20 -20 -20 -20 -19 -20 -20 -20 -20 -19 -20
-20 -20 -20 -20 -20 -20 -20 -20 -20 -20 -20 -20 -20 -20 -20 -17 -20 -20 -20 -20 -20 -20 -20 -20 -20 -20 -20 -20 -20 -20 -20 -20 -20 -20 -20 -20 -20 -20 -20 -20 -20 -20 -20 -20 -20 -20 -20 -20 -20 -20 -20 -20 -20 -20
-20 -20 -20 -20 -20 -20 -20 -20 -20 -20 -20 -20 -20 -20 -13 -20 -20 -19 -3 -20 -20 -20 -20 -20 -20 -20 -20 -20 -20 -20 -20 -20 -20 -20 -20 -20 -20 -20 -20 -3 -15 -20 -20 -20 -20 -20 -20 -20 -20 -20 -20 -20 -20 -20
-20 -20 -20 -20 -20 -20 -20 -20 -20 -20 -20 -20 -20 -20 -20 -20 -20 -20 -20 -14 -20 -20 -20 -20 -20 -20 -20 -20 -20 -20 -20 -20 -20 -20 -20 -13 -19 -20 -19 -5 6 -12 -20 -20 -20 -0 -20 -20 -20 -20 -20 -20 -20 -20
-20 -20 -20 -20 -20 -20 -20 -20 -20 -20 -20 -20 -20 -20 -20 -20 -20 -20 -20 -11 -7 -20 -20 -20 -20 -20 -20 -20 -20 -20 -20 -20 -20 -20 -20 -20 -20 -20 -20 -17 7 -20 -20 -18 -20 -15 -6 -20 -20 -20 -20 -20 -20 -20
-20 -20 -20 -20 -20 -20 -20 -14 -20 -20 -20 -1 -3 -14 -20 -20 -20 -20 -20 -6 -17 -20 -17 -20 -20 -20 -20 -20 -20 -20 -17 -19 -20 -20 -20 -20 -20 -20 -20 -20 -20 -20 -20 -20 -20 -20 -20 -20 -20 -20 -20 -20 -20 -20
-20 -20 -20 -20 -20 -20 -20 -20 -20 -20 -20 -12 -20 -20 -20 -20 -20 -7 -12 -20 -13 -4 14 4 0 -16 -20 -20 -20 -20 -18 -20 -20 -20 -20 -20 -20 -20 -20 -20 -20 -20 -20 -20 -20 -20 -20 -20 -20 -20 -20 -20 -20 -20
-20 -20 -20 -20 -20 -20 -20 -20 -20 -20 -20 -20 -20 -20 -20 -18 7 -6 8 6 14 5 6 -2 -1 -19 -20 -14 -10 -20 -20 -20 -20 -20 -20 -20 -20 -20 -20 -20 -20 -19 -18 -18 -20 -20 -20 -20 -20 -20 -20 -20 -20 -20
-20 -20 -20 -20 -20 -20 -20 -20 -20 -20 -20 -20 -20 -20 -20 -20 -20 -19 -16 -18 -13 -18 -20 -20 -20 6 9 -9 6 14 23 2 -20 -20 -20 -20 -20 -20 -20 -20 -20 -19 -17 -20 -20 -20 -20 -20 -20 -19 -19 -20 -20 -20
-20 -20 -17 -19 -20 -20 -20 -20 -20 -20 -20 -20 -20 -20 -20 -20 -20 -20 -19 -1 -20 -20 -20 -20 -20 -20 -14 -4 -20 -20 -20 -20 -20 -20 -20 -20 -20 -20 -20 -20 -20 -20 -20 -20 -20 -20 -20 -20 -20 -20 -17 -18 -20 -20
-12 -8 -20 -20 -20 -20 -20 -20 -20 -20 -20 -20 -20 -20 -20 -20 -20 -10 14 -2 -20 -20 -20 -20 -20 -15 -7 -20 -8 -19 -20 -20 -20 -20 -20 9 -7 -20 -20 -20 -20 -20 -20 -20 -20 -20 -20 -20 -20 -20 -20 -20 -20 -20
14 12 9 -13 -20 -20 -20 -20 -20 -20 6 12 -11 -20 -20 -20 -18 -0 -20 -20 -20 -20 -20 -20 -20 -20 -20 -20 -19 -3 -20 -20 -20 -20 -9 -1 -12 -20 -20 -20 -20 -20 -20 -20 -20 -20 -20 -20 -20 -20 -20 -20 -20 -20
9 4 -19 -2 -3 -15 -20 -11 -6 -17 -19 -18 -17 -20 -20 -20 -20 -20 -20 -20 -20 -20 -20 -20 -20 -20 -20 -20 -20 -10 10 -9 -20 -20 -20 -20 -20 -20 -20 -20 -20 -11 -10 -20 -20 -20 -20 -20 -20 -20 -20 -20 -20 -20
-20 -20 -20 -20 -14 -15 6 8 -16 -20 -15 -17 -12 -20 -20 -20 -20 -20 -20 -20 -20 -20 -20 -20 -20 -20 -20 -20 -18 -16 1 10 -16 -20 -20 -20 -20 -20 -20 -20 -20 -19 -20 -20 -20 -20 -20 -20 -20 -20 -20 -20 -20 -20
-20 -20 -20 -20 -20 -20 -20 -20 -20 -20 -20 -20 -20 -20 -20 -20 -19 -5 -20 -20 -20 -20 -20 -20 -20 -20 -13 -20 -18 -9 9 11 -13 -20 -20 -20 -20 -20 -20 -20 -20 -6 9 10 5 -11 -20 -20 -20 -20 -20 -20 -20 -20
-20 -20 -20 -20 -20 -20 -20 -20 -12 -20 -20 -20 -20 -20 -20 -20 -20 -20 -10 -20 -20 -20 -18 -18 -19 -20 -20 -16 -16 -5 2 -13 -20 -20 -20 -20 -20 -20 -20 -20 -20 -11 6 12 11 4 -5 -20 -20 -20 -20 -20 -20 -20
-20 -20 -20 -20 -20 -20 -20 -20 -20 -20 -20 -20 -20 -20 -20 -20 -9 1 -15 -20 -5 2 -4 -19 -20 -8 -0 -20 -8 -19 -20 -20 -20 -20 -20 -20 -20 -20 -20 -20 -20 -20 -13 -12 -20 -20 -20 -20 -20 -20 -20 -20 -20 -20

GFSWCAN_prec_radar_162.txt.gz
Reflectivity
16 7 15 9 8 15 16 14 15 11 18 16 12 13 11 -20 3 2 -2 -20 -16 4 -20 -20 -20 -20 -20 -20 -20 5 -20 -8 10 -3 10 8 8 3 7 17 20 16 18 19 17 17 15 -20 -20 -20 -20 -20 -20 -20
15 -5 10 -0 16 14 15 14 13 15 11 18 18 16 21 14 13 11 21 -9 -20 10 5 -20 -20 -20 -20 -20 -1 6 -18 -18 -16 -2 15 -16 -12 -13 20 16 8 15 -2 21 21 2 -20 -20 -20 -20 -20 -20 -20 -20
18 1 -12 8 14 9 14 16 13 14 13 15 19 17 17 15 14 -15 12 -7 16 14 8 7 -16 -20 -20 -20 -20 5 2 3 -16 3 11 12 7 -12 4 -2 21 6 -16 9 15 -20 -20 -20 -20 -20 -20 -20 -20 -20
18 11 3 8 11 -10 -15 1 11 14 15 13 16 17 25 17 18 17 6 -5 -4 9 10 -20 -20 -20 -15 -20 -20 -20 -20 -14 20 18 13 13 11 -7 5 11 12 18 22 20 -20 -20 -20 -20 -20 -20 -20 -20 -20 -20
10 26 31 3 12 -17 17 -1 7 -20 15 11 16 13 15 15 16 20 11 12 -17 -13 8 -1 -20 -20 -18 -15 -20 -20 -20 -12 3 12 12 18 8 8 6 2 -7 6 -20 -20 -20 -20 -20 -20 -20 -20 -20 -20 -20 -20
-20 18 23 18 17 15 6 0 17 16 13 11 5 17 23 26 20 36 33 35 20 -14 28 9 -20 -20 3 8 -20 -20 -20 1 20 10 11 7 -7 9 14 11 18 -9 -20 -20 -20 -20 -20 -20 -20 -20 8 30 15 4
10 4 8 18 16 18 14 20 19 15 16 16 16 15 16 21 34 33 22 5 30 14 26 22 9 -20 -18 -16 -12 15 8 13 16 19 17 8 19 23 10 2 10 -20 -20 -20 -20 -20 -20 -20 -20 -20 -20 -4 8 -10
-1 -16 -19 14 6 9 24 26 29 32 19 20 26 31 32 38 32 37 27 11 14 34 35 18 -1 -20 -10 12 18 17 12 16 -2 17 22 16 15 32 16 -19 -20 -20 -20 -20 -20 -20 -20 -20 -17 -20 -20 -20 -20 -17
12 8 -13 -15 -20 -13 10 8 10 8 -8 21 31 34 38 34 28 13 16 12 24 13 7 3 -15 -20 -13 12 29 26 17 20 10 13 13 18 23 16 -12 -18 -20 -20 -20 -20 -20 -20 -20 -20 -20 -20 -20 -20 -20 -20
-20 -20 -20 10 6 5 5 16 31 16 20 24 36 29 27 32 21 17 30 16 2 -19 -1 7 -20 -20 -6 5 32 31 20 21 19 17 8 15 15 -19 1 -18 -20 -20 -20 -20 -20 -20 -20 -20 -20 -20 -20 -20 -20 -20
-7 -16 -20 -20 -16 -4 9 12 13 14 -1 -8 -16 11 18 21 3 3 1 2 1 -4 -17 -16 -20 -20 -5 4 9 36 17 8 10 7 9 6 -6 -17 18 6 2 -20 -20 -20 -20 -20 -20 -20 -20 -20 -20 -20 -20 -20
19 22 7 -9 8 -11 -20 -20 -20 -20 -9 -11 -20 9 9 8 -7 -20 -19 -3 -3 -20 -20 -12 -15 -12 -6 -16 10 8 16 -1 11 -6 1 -20 2 11 11 2 -20 -20 -20 -20 -20 -20 -20 -20 -20 -20 -20 -20 -20 -12
11 -18 -14 14 15 3 2 -20 -20 -19 -20 -20 -20 -20 -5 -20 1 -20 -16 10 -20 -16 -5 3 14 6 5 12 6 1 4 1 1 2 -20 -20 -20 -20 -20 -20 -20 -20 -20 -20 -20 -20 -20 -20 -20 -20 -20 -20 -18 -20
-20 -20 -20 -20 -20 6 -9 -15 -19 -19 -3 26 -0 8 14 7 11 -20 -19 -15 -20 -20 -20 6 30 17 9 -1 -19 -17 -2 -6 -20 -20 -20 -20 -20 -20 -20 -20 -20 -20 -20 -20 -20 -20 -20 -20 -20 -20 -20 -20 -20 -20
-20 -20 -20 -20 -20 -20 -20 6 -12 -2 -4 8 -20 13 13 9 -2 -5 -13 -15 -14 -20 -7 27 -19 6 -20 -20 -8 -20 -20 -20 -20 -20 -20 -20 -20 -20 -19 -20 -20 -20 -20 -20 -20 -20 -20 -20 -20 -20 -20 -20 -20 -20
-20 -20 -20 -20 -20 -20 -20 3 18 17 -7 -3 -20 -20 -20 -16 3 -20 -4 0 -20 -9 -20 -20 -4 -20 -20 -20 -20 -20 -20 -20 -20 -20 -20 -20 -20 -20 -20 -20 -20 -20 -20 -20 -20 -20 -20 -20 -20 -20 -20 -20 -20 -17
-20 -20 -20 -20 -20 -20 -20 -13 -18 -17 -20 -20 -20 -14 -20 -20 -20 -20 -4 -20 -19 -0 17 7 -20 -20 -20 -20 -20 -20 -20 -20 -20 -20 -20 -20 -20 -20 -16 -20 -20 -20 -20 -20 -20 -20 -20 -20 -20 -20 -20 -19 -20 -20
-20 -20 -20 -20 -20 -20 -20 -20 -11 9 -20 -20 -20 -10 -20 -20 -20 -18 -20 -20 -2 -19 -10 5 -20 -20 -20 -20 -20 -20 -20 -20 -20 -20 -20 -20 -20 -20 -20 -20 -20 -20 -20 -18 -17 -20 -20 -20 -20 -20 -20 -20 -20 -20
-20 -20 -20 -20 -20 -20 -20 -20 -20 -20 -20 -1 -17 -20 -20 -20 -20 -18 -20 -14 -2 0 -20 -20 -20 -10 -20 -20 13 -20 -20 -20 -20 -20 -20 -14 -20 -20 -18 -20 -20 -20 -20 -20 -20 -20 -20 -20 -20 -20 -20 -20 -20 -20
-20 -20 -20 -20 -20 -20 -20 -20 -20 -20 -14 -7 -20 -20 -20 -17 -20 -20 -9 2 7 5 -9 -4 -15 -20 18 -15 -20 -20 -20 -20 -20 -16 -18 -16 -7 -5 -16 -5 -20 -20 -20 -20 -20 -20 -20 -20 -20 -5 -7 -3 -6 -4
-20 -20 -20 -20 -20 -20 -20 -20 -20 -20 -20 -15 -9 -9 -20 -5 -20 -20 5 5 12 12 9 6 -20 -20 -20 -20 -20 -20 -20 -20 -20 0 -7 -16 -20 2 -10 -20 -20 -20 -20 -20 -20 -8 -20 -0 -4 -2 -1 -19 -16 -1
-20 -20 -20 -13 -20 -20 -14 -16 -20 -20 -20 8 -16 23 10 3 3 -4 -14 7 10 15 15 3 -13 -12 -20 -17 -20 -20 -20 -20 -20 7 -16 -20 -19 -9 -9 -20 -20 -20 -17 3 3 -2 -2 -20 -2 -2 -10 1 -0 -8
-20 -20 -6 -6 -20 -20 -7 -20 2 6 10 14 2 15 7 -17 -2 7 13 15 18 9 21 11 -1 -12 -20 -20 -20 -20 -20 -15 26 -1 -20 -20 -20 -8 -20 -20 -10 5 -13 -14 2 -1 -0 -19 -12 -20 -2 -1 -0 -0
-20 -20 -20 -2 -8 -20 -20 -14 -14 11 -13 18 15 9 2 -14 -5 15 22 10 8 -20 -20 -20 -20 -16 -5 -1 -2 -9 -11 -20 2 -16 -20 -20 -20 -20 -20 -20 -20 -20 -19 -3 -4 -7 -16 1 -5 -1 -17 -5 -1 -2
-20 -20 -20 -20 -20 -11 -20 -20 -20 -20 -20 -20 -20 4 -1 -20 4 -18 11 11 6 -20 -20 -20 -20 -20 -13 6 2 4 9 6 3 7 7 -15 -17 -4 -1 -20 -2 -15 -7 1 -3 -20 -20 -20 -20 -14 -20 -19 -5 -6
-20 -20 -9 -5 9 9 4 8 -12 -2 -20 -16 -13 -20 -20 12 -17 1 13 10 3 -1 -20 -20 -20 -20 -20 -15 -1 1 5 4 10 12 -1 -15 7 4 -6 -18 -20 -1 -20 -9 -20 -20 -20 -20 -16 -19 -15 -15 -20 -16
-2 -3 4 -11 -20 -15 -20 -20 -20 -12 -20 -16 -20 -20 -8 -11 -14 14 19 8 5 0 -20 -20 -20 -20 -20 -20 -20 -20 -19 -20 -11 -10 -20 10 19 5 4 5 -10 -20 -20 -20 2 -0 -17 -20 -20 -9 2 -1 -20 -6
13 -18 -1 10 -19 -20 -20 -20 -11 3 11 -2 5 -17 -15 5 18 13 -16 -20 -20 -20 -17 -20 -20 -20 -20 -20 -20 -20 -20 -20 -20 -20 -20 -20 -20 -20 -20 -5 -20 -20 -8 -12 -3 -2 -0 -17 -18 -20 -9 -20 -4 -3
-20 -20 0 9 -3 12 13 15 12 9 9 3 12 12 15 -14 -12 -20 -20 -17 3 0 1 -17 -20 -20 3 -2 -20 -4 -3 11 -17 -18 -20 -19 2 -20 -20 -7 -2 -20 -20 -20 -20 -13 -2 -20 -17 -9 -20 -3 -7 -3
-20 -20 -20 2 -20 11 -0 -6 -18 -20 -20 -17 -3 -12 12 -2 6 -0 -19 -12 2 10 12 13 12 10 1 1 -2 -19 3 16 2 9 6 -10 -0 -20 -3 -1 -13 -14 -20 -3 -5 -2 -16 -20 -20 -20 -9 -4 -1 -3
-20 -20 -9 -20 -20 -20 -20 -18 -19 -20 -20 -8 -17 -3 -14 -4 4 -7 -20 1 -1 -2 -20 -19 -13 7 -3 0 1 -0 3 11 -8 -20 -20 -20 -20 -17 -8 -2 1 3 1 -19 -20 -20 -19 -1 -12 -20 -15 -14 -15 -3
-20 -20 -20 -20 -20 -20 -20 -20 -3 -18 -20 -20 -10 -6 2 7 1 1 9 4 -20 -20 -20 -8 -15 -17 -18 3 2 -13 1 9 7 -20 -20 -20 -20 -20 -5 -6 -3 4 4 7 3 -3 -8 -20 -20 -16 -20 -20 -20 -20
-20 -20 -20 -20 -20 -20 -20 -20 -20 -20 -20 -16 -15 -9 10 3 -18 6 5 7 7 8 1 -8 -2 2 -8 2 5 -16 -20 -20 -20 -20 -20 -20 -20 -20 -20 -9 2 2 -7 -0 3 1 -2 -9 -17 -19 -20 -20 -20 -20